STARLINK-4586, 53636

Orbit data source: Space-Track

STARLINK-4586, 53636 is a payload satellite owned by SpaceX/Seattle (US) in LEO that was launched on Sun, 28 Aug 2022 UTC via an FALCON 9 launch vehicle from the Air Force Eastern Test Range (AFETR). Payload-class satellites include a variety of spacecraft equipped with specific instruments for various scientific and technological missions. These include communications satellites like Starlink; space stations such as the ISS; scientific satellites like the Hubble; Earth observation satellites from companies like Planet Labs, Umbra, and HawkEye 360; GPS; miniature CubeSats for education and research; and military/defense satellites.

Loading next visibility...
Identifier
53636, 2022-104BA
Orbit
LEO
Country
Flag of USUS
Related business
Manufacturer
SpaceX/Seattle
Mission
Operational Commercial Communications
Bus & Motor
STARLINK, Unknown motor
Mass
300 kg wet, ~290 kg dry
Launch date (UTC)
2022-08-28 (4 years ago)
Launch vehicle
FALCON 9
Launch site
Air Force Eastern Test Range (AFETR)
Object type
Payload
Rocket body
Debris
Shape & HBR
Box + 1 Pan, 10.1 m
Radar Cross Section
13.562 m², Large (>1 m²)

Expand to show TLE details & history
Last TLE update: 8 hours ago

TLE from 8 hours ago
0 STARLINK-4586
1 53636U 22104BA  26127.08645194  .00022623  00000-0  14331-2 0  9996
2 53636  53.2164 321.7907 0001125  72.5659 287.5456 15.08888099205042
Epoch: 2026-05-07T02:04Z
TLE epoch observation values (Epoch: 2026-05-07T02:04:29.447Z)
Latitude
-0.00004°
Longitude
65.73034°
Altitude
540.259 km
Speed
7.594 km/s
True Right ascension
21h 27m 09s
True Declination
0° 00' 00"
Sunlit
Object was in daylight at epoch
Visualization orbit readout
Latitude
Unknown
Longitude
Unknown
Altitude
Unknown
Speed
Unknown
Apparent Right ascension
Unknown
Apparent Declination
Unknown
Sunlit
N/A
Visualization observer readout
Local Sidereal Time
18:25:09
Azimuth
Unknown
Elevation
Unknown
Doppler factor
Unknown
Orbital elements
Apogee altitude
540.62 km
Perigee altitude
539.063 km
Semi-major axis
6,917.978 km
Eccentricity
0.00011
Inclination
53.2164°
RAAN
321.7907°
Arg. of periapsis
72.5659°
True anomaly
287.53331°
Mean anomaly
287.5456°
Eccentric anomaly
287.53945°
Mean motion
3.77202 °/min
Orbital period
95.44 mins
BSTAR
0.0014331
Loading maneuver chart data...
Computing Atmospheric mass density...
Loading historical data...
Loading historical data...
Loading historical data...
Loading historical data...
Loading historical data...
Loading historical data...
Loading historical data...

Documentation

Showing up to 5 results
|